EUTELSAT 117 WEST B

Last updated on Sun Jun 21 2026 00:03:06 GMT+0000 (Coordinated Universal Time)

1 41589U 16038B 26171.36572507 -.00000016 00000+0 00000+0 0 9993 2 41589 0.0119 154.9940 0000496 333.4232 154.8419 1.00272242 36697
UTC large
Height (km)
Speed (km/s)
/
Latitude / Longitude
Inclination (degrees)
Orbital Period (minutes)
Azimuth
Elevation
Range (km)
Doppler Factor

Next 0 passes for location: London (51.5072 / 0.1276)

No passes found over London.
EUTELSAT 117 WEST B